Location: Navalespino
(40.5894°N, 4.2660°W)
Time: 19:33:55
(UTC+00:00)

CZ-4C R/B - Pass Details

Date: 18 April 2024
Orbit: 446 x 585 km, 98.0° (Epoch: 17 May)

Event Time Altitude Azimuth Distance (km) Brightness Sun altitude
Rises 20:50:28 0° 8° (N) 2,479 7.0 -19.7°
Reaches altitude 10° 20:52:33 10° 4° (N) 1,590 6.1 -20.0°
Maximum altitude 20:55:52 56° 286° (WNW) 540 3.5 -20.6°
Enters shadow 20:57:35 25° 217° (SW) 942 4.5 -20.8°
